This is the latest recevied weather packets stored in our database for station/object KD8NVS-13. If no packets are shown the sender has not sent any weather packets the latest 10 day(s).
| Time | Temp. | Humidity | Pressure | Rain* | Wind** | Luminosity | Snow |
|---|---|---|---|---|---|---|---|
| 1777062573 | 27.78° C | 41% | 997.3 hPa | 0 mm | - | 152 W/m² | - |
| 1777062267 | 27.22° C | 43% | 997.3 hPa | 0 mm | - | 161 W/m² | - |
| 1777061965 | 27.22° C | 41% | 997.6 hPa | 0 mm | - | 149 W/m² | - |
| 1777061661 | 27.78° C | 40% | 997.6 hPa | 0 mm | - | 108 W/m² | - |
| 1777061357 | 27.78° C | 41% | 997.6 hPa | 0 mm | - | 133 W/m² | - |
| 1777061051 | 27.78° C | 40% | 998 hPa | 0 mm | - | 132 W/m² | - |
| 1777060748 | 27.22° C | 40% | 998 hPa | 0 mm | - | 158 W/m² | - |
| 1777060442 | 27.22° C | 40% | 998 hPa | 0 mm | - | 158 W/m² | - |
| 1777060139 | 27.22° C | 42% | 998 hPa | 0 mm | - | 142 W/m² | - |
| 1777059835 | 27.78° C | 38% | 998 hPa | 0 mm | - | 143 W/m² | - |
| 1777059531 | 27.78° C | 43% | 998.3 hPa | 0 mm | - | 150 W/m² | - |
| 1777059229 | 27.78° C | 42% | 998.3 hPa | 0 mm | - | 197 W/m² | - |
| 1777058928 | 27.22° C | 45% | 998.3 hPa | 0 mm | - | 246 W/m² | - |
| 1777058623 | 27.78° C | 42% | 998.3 hPa | 0 mm | - | 204 W/m² | - |
| 1777058320 | 27.78° C | 40% | 998.3 hPa | 0 mm | - | 176 W/m² | - |
| 1777058017 | 27.78° C | 44% | 998.3 hPa | 0 mm | - | 215 W/m² | - |
| 1777057717 | 27.78° C | 46% | 998.3 hPa | 0 mm | - | 174 W/m² | - |
| 1777057412 | 27.22° C | 42% | 998.7 hPa | 0 mm | - | 179 W/m² | - |
| 1777057108 | 26.67° C | 43% | 998.3 hPa | 0 mm | - | 182 W/m² | - |
| 1777056803 | 27.22° C | 43% | 998.3 hPa | 0 mm | - | 118 W/m² | - |
| 1777056499 | 27.22° C | 43% | 998.3 hPa | 0 mm | - | 134 W/m² | - |
| 1777056193 | 26.67° C | 45% | 998.7 hPa | 0 mm | - | 198 W/m² | - |
* Rain latest hour (hover to see other rain measurements)
** Current wind speed in m/s (hover to see current wind gust speed)